Project,Study,Ord_Occ,Event_Num,Cast_ID,Date_Time_UTC,Date_Time_PST,Lat_Dec,Lon_Dec,Sta_ID,Line,Sta,Depth,Pressure,PrQ,Temp1,Temp1Q,Temp2,Temp2Q,TempAve,Salt1,Salt1Q,Salt1_Corr,Salt2,Salt2Q,Salt2_Corr,SaltAve_Corr,Ox1,Ox1Q,Ox1_CruiseCorr,Ox1_StaCorr,Ox2,Ox2Q,Ox2_CruiseCorr,Ox2_StaCorr,OxAve_StaCorr,Ox1uM,Ox1uM_CruiseCorr,Ox1uM_StaCorr,Ox2uM,Ox2uM_CruiseCorr,Ox2uM_StaCorr,OxAveuM_StaCorr,FluorV,FluorQ,EstChl_CruiseCorr,EstChl_StaCorr,ISUSV,ISUSQ,EstNO3_CruiseCorr,EstNO3_StaCorr,SigThetaTS1,SigThetaTS1Q,SigThetaTS2,SigThetaTS2Q,BAT,XMiss,TransQ,pH,pHQ,SPAR,SPARQ,PAR,PARQ,PoT1,PoT2,DynHt,SVA,OxSat1,OxSat2,BTL_Depth,BTL_Temp,SaltB,OxB,OxBuM,Chl-a,Phaeo,NO3,NO2,NH4,PO4,SIL
CalCOFI,2007SR,058,60,2007_058d,24-Jul-2020 11:20:28,24-Jul-2020 03:20:28,33.48224,-122.53278,080.0 080.0,080.0,080.0,2.000,2.014,,15.9592,,15.9597,,15.9595,33.2370,,33.2372,33.2377,,33.2393,33.2383,5.7251,,5.9645,6.0427,4.5221,,6.8544,5.0045,5.5236,249.593,260.0620,258.1890,197.145,444.9240,207.0963,232.6427,0.1312,,1.1191,0.6438,-99.0,,-99.0,-99.0,24.4011,,24.4015,,0.7715,82.4586,,8.153,,1.9043E+00,,7.7841E-01,,15.9589,15.9594,0.0058,,101.395,80.089,2,15.700,33.2090,6.041,263.80,0.393,0.134,0.89,0.00,0.11,0.36,1.93
CalCOFI,2007SR,058,60,2007_058d,24-Jul-2020 11:20:38,24-Jul-2020 03:20:38,33.48224,-122.53278,080.0 080.0,080.0,080.0,3.000,3.021,,15.9621,,15.9579,,15.9600,33.2379,,33.2381,33.2376,,33.2392,33.2387,5.7198,,5.9589,6.0371,4.5220,,6.8542,5.0043,5.5207,249.360,259.8188,257.9406,197.142,444.3542,207.0895,232.5151,0.1292,,1.0955,0.6511,-99.0,,-99.0,-99.0,24.4011,,24.4018,,0.7745,82.3961,,8.153,,1.9043E+00,,6.8891E-01,,15.9617,15.9575,0.0142,,101.307,80.086,,,,,,,,,,,,
CalCOFI,2007SR,058,60,2007_058d,24-Jul-2020 11:20:40,24-Jul-2020 03:20:40,33.48224,-122.53278,080.0 080.0,080.0,080.0,4.000,4.029,,15.9646,,15.9605,,15.9626,33.2365,,33.2367,33.2367,,33.2383,33.2375,5.7167,,5.9557,6.0339,4.5264,,6.8647,5.0145,5.5242,249.229,259.6821,257.8009,197.334,444.0338,207.5193,232.6601,0.1249,,1.0448,0.6641,-99.0,,-99.0,-99.0,24.3996,,24.4006,,0.7706,82.4772,,8.153,,1.9043E+00,,6.5039E-01,,15.9639,15.9599,0.0180,,101.257,80.167,,,,,,,,,,,,
CalCOFI,2007SR,058,60,2007_058d,24-Jul-2020 11:20:41,24-Jul-2020 03:20:41,33.48224,-122.53278,080.0 080.0,080.0,080.0,5.000,5.036,,15.9351,,15.9288,,15.9320,33.2224,,33.2226,33.2307,,33.2323,33.2275,5.7132,,5.9520,6.0302,4.5288,,6.8704,5.0201,5.5252,249.077,259.5234,257.6389,197.440,443.6620,207.7566,232.6978,0.1205,,0.9929,0.6736,-99.0,,-99.0,-99.0,24.3954,,24.4032,,0.7688,82.5137,,8.153,,1.9043E+00,,6.3669E-01,,15.9343,15.9280,0.0215,,101.128,80.158,,,,,,,,,,,,
CalCOFI,2007SR,058,60,2007_058d,24-Jul-2020 11:20:44,24-Jul-2020 03:20:44,33.48224,-122.53278,080.0 080.0,080.0,080.0,6.000,6.043,,15.7430,,15.7272,,15.7351,33.1882,,33.1884,33.1989,,33.2005,33.1945,5.7451,,5.9854,6.0638,4.5534,,6.9291,5.0775,5.5707,250.461,260.9681,259.1144,198.506,447.0470,210.1426,234.6285,0.1281,,1.0825,0.6548,-99.0,,-99.0,-99.0,24.4122,,24.4239,,0.7693,82.5042,,8.153,,1.9043E+00,,6.0025E-01,,15.7420,15.7263,0.0251,,101.288,80.257,,,,,,,,,,,,
CalCOFI,2007SR,058,60,2007_058d,24-Jul-2020 11:20:46,24-Jul-2020 03:20:46,33.48224,-122.53278,080.0 080.0,080.0,080.0,7.000,7.050,,15.7396,,15.6868,,15.7132,33.2422,,33.2424,33.2082,,33.2098,33.2261,5.7442,,5.9844,6.0629,4.5596,,6.9439,5.0920,5.5775,250.412,260.9170,259.0622,198.774,446.9272,210.7424,234.9023,0.1214,,1.0035,0.6720,-99.0,,-99.0,-99.0,24.4545,,24.4401,,0.7678,82.5336,,8.154,,1.9043E+00,,5.6998E-01,,15.7385,15.6857,0.0286,,101.298,80.307,,,,,,,,,,,,
CalCOFI,2007SR,058,60,2007_058d,24-Jul-2020 11:20:48,24-Jul-2020 03:20:48,33.48224,-122.53278,080.0 080.0,080.0,080.0,8.000,8.057,,15.7157,,15.7134,,15.7146,33.1273,,33.1275,33.1794,,33.1810,33.1543,5.7590,,5.9999,6.0785,4.5621,,6.9499,5.0978,5.5882,251.077,261.6112,259.7712,198.888,448.5537,210.9976,235.3844,0.1294,,1.0979,0.6504,-99.0,,-99.0,-99.0,24.3714,,24.4119,,0.7675,82.5401,,8.154,,1.9043E+00,,5.5505E-01,,15.7145,15.7122,0.0321,,101.438,80.378,,,,,,,,,,,,
CalCOFI,2007SR,058,60,2007_058d,24-Jul-2020 11:20:50,24-Jul-2020 03:20:50,33.48225,-122.53278,080.0 080.0,080.0,080.0,9.000,9.064,,15.3713,,15.3295,,15.3504,33.1307,,33.1309,33.1442,,33.1458,33.1384,5.7832,,6.0252,6.1040,4.6015,,7.0440,5.1897,5.6469,252.113,262.6927,260.8757,200.594,451.0876,214.8162,237.8460,0.1330,,1.1404,0.6365,-99.0,,-99.0,-99.0,24.4504,,24.4699,,0.7680,82.5301,,8.155,,1.9043E+00,,5.3629E-01,,15.3700,15.3282,0.0356,,101.176,80.441,,,,,,,,,,,,
CalCOFI,2007SR,058,60,2007_058d,24-Jul-2020 11:20:52,24-Jul-2020 03:20:52,33.48224,-122.53279,080.0 080.0,080.0,080.0,10.000,10.072,,15.1237,,15.1236,,15.1237,33.0820,,33.0822,33.1123,,33.1139,33.0981,5.7771,,6.0188,6.0976,4.6354,,7.1249,5.2688,5.6832,251.842,262.4098,260.5868,202.069,450.4248,218.1177,239.3523,0.1308,,1.1144,0.6453,-99.0,,-99.0,-99.0,24.4671,,24.4904,,0.7687,82.5164,,8.156,,1.9043E+00,,5.0943E-01,,15.1222,15.1221,0.0391,,100.543,80.688,10,15.290,33.1795,6.055,264.44,0.433,0.131,0.99,0.00,0.20,0.37,1.96
CalCOFI,2007SR,058,60,2007_058d,24-Jul-2020 11:20:54,24-Jul-2020 03:20:54,33.48224,-122.53279,080.0 080.0,080.0,080.0,11.000,11.079,,14.8434,,14.7958,,14.8196,33.0114,,33.0116,33.0520,,33.0536,33.0326,5.8705,,6.1164,6.1961,4.6751,,7.2197,5.3614,5.7788,255.913,266.6595,264.9271,203.795,460.3819,221.9810,243.4541,0.1339,,1.1510,0.6327,-99.0,,-99.0,-99.0,24.4732,,24.5146,,0.7731,82.4257,,8.153,,1.9043E+00,,4.9767E-01,,14.8418,14.7942,0.0426,,101.553,80.818,,,,,,,,,,,,
CalCOFI,2007SR,058,60,2007_058d,24-Jul-2020 11:20:56,24-Jul-2020 03:20:56,33.48225,-122.53278,080.0 080.0,080.0,080.0,12.000,12.086,,14.2973,,14.2507,,14.2740,32.9314,,32.9316,32.9864,,32.9880,32.9598,5.9529,,6.2025,6.2831,4.7195,,7.3257,5.4650,5.8741,259.491,270.3946,268.7419,205.715,469.1331,226.2785,247.5102,0.1412,,1.2371,0.5955,-99.0,,-99.0,-99.0,24.5273,,24.5796,,0.7621,82.6536,,8.155,,1.9043E+00,,4.8923E-01,,14.2955,14.2489,0.0461,,101.805,80.662,,,,,,,,,,,,
CalCOFI,2007SR,058,60,2007_058d,24-Jul-2020 11:20:58,24-Jul-2020 03:20:58,33.48225,-122.53279,080.0 080.0,080.0,080.0,13.000,13.093,,14.1264,,14.1183,,14.1224,33.0037,,33.0039,33.0182,,33.0198,33.0119,5.9779,,6.2286,6.3095,4.7303,,7.3514,5.4902,5.8999,260.560,271.5105,269.8816,206.177,471.7478,227.3126,248.5971,0.1455,,1.2879,0.5686,-99.0,,-99.0,-99.0,24.6189,,24.6318,,0.7603,82.6900,,8.152,,1.9043E+00,,4.7948E-01,,14.1245,14.1165,0.0494,,101.926,80.647,,,,,,,,,,,,
CalCOFI,2007SR,058,60,2007_058d,24-Jul-2020 11:21:01,24-Jul-2020 03:21:01,33.48224,-122.53280,080.0 080.0,080.0,080.0,14.000,14.100,,14.1636,,14.1695,,14.1666,33.0603,,33.0605,33.0583,,33.0599,33.0602,5.9773,,6.2280,6.3088,4.7262,,7.3417,5.4806,5.8947,260.522,271.4708,269.8411,205.996,471.6548,226.9075,248.3743,0.1534,,1.3812,0.5098,-99.0,,-99.0,-99.0,24.6549,,24.6521,,0.7615,82.6640,,8.147,,1.9043E+00,,4.5867E-01,,14.1616,14.1675,0.0528,,102.027,80.682,,,,,,,,,,,,
CalCOFI,2007SR,058,60,2007_058d,24-Jul-2020 11:21:02,24-Jul-2020 03:21:02,33.48224,-122.53280,080.0 080.0,080.0,080.0,15.000,15.108,,14.2161,,14.2189,,14.2175,33.0944,,33.0946,33.0943,,33.0959,33.0953,5.9681,,6.2184,6.2991,4.7206,,7.3283,5.4676,5.8834,260.117,271.0480,269.4093,205.747,470.6642,226.3501,247.8797,0.1510,,1.3528,0.5290,-99.0,,-99.0,-99.0,24.6703,,24.6697,,0.7627,82.6406,,8.146,,1.9043E+00,,4.3532E-01,,14.2140,14.2167,0.0561,,102.000,80.684,,,,,,,,,,,,
CalCOFI,2007SR,058,60,2007_058d,24-Jul-2020 11:21:04,24-Jul-2020 03:21:04,33.48226,-122.53278,080.0 080.0,080.0,080.0,16.000,16.115,,14.2112,,14.2119,,14.2116,33.0965,,33.0967,33.0990,,33.1006,33.0987,5.9630,,6.2130,6.2938,4.7245,,7.3376,5.4767,5.8853,259.895,270.8163,269.1726,205.916,470.1213,226.7284,247.9505,0.1531,,1.3776,0.5123,-99.0,,-99.0,-99.0,24.6730,,24.6747,,0.7607,82.6814,,8.143,,1.9043E+00,,4.2201E-01,,14.2089,14.2096,0.0593,,101.904,80.742,,,,,,,,,,,,
CalCOFI,2007SR,058,60,2007_058d,24-Jul-2020 11:21:06,24-Jul-2020 03:21:06,33.48225,-122.53279,080.0 080.0,080.0,080.0,17.000,17.122,,14.1947,,14.1935,,14.1941,33.0987,,33.0989,33.1019,,33.1035,33.1012,5.9690,,6.2193,6.3001,4.7307,,7.3524,5.4911,5.8956,260.157,271.0898,269.4519,206.185,470.7621,227.3305,248.3912,0.1543,,1.3918,0.5023,-99.0,,-99.0,-99.0,24.6782,,24.6809,,0.7630,82.6349,,8.141,,1.9043E+00,,3.9135E-01,,14.1922,14.1910,0.0626,,101.975,80.819,,,,,,,,,,,,
CalCOFI,2007SR,058,60,2007_058d,24-Jul-2020 11:21:08,24-Jul-2020 03:21:08,33.48225,-122.53280,080.0 080.0,080.0,080.0,18.000,18.129,,14.1644,,14.1505,,14.1575,33.0910,,33.0912,33.0962,,33.0978,33.0945,5.9529,,6.2025,6.2831,4.7458,,7.3884,5.5264,5.9048,259.456,270.3580,268.7045,206.841,469.0475,228.7988,248.7517,0.1557,,1.4083,0.4904,-99.0,,-99.0,-99.0,24.6785,,24.6855,,0.7648,82.5968,,8.141,,1.9043E+00,,3.3888E-01,,14.1619,14.1479,0.0659,,101.633,81.003,,,,,,,,,,,,
CalCOFI,2007SR,058,60,2007_058d,24-Jul-2020 11:21:11,24-Jul-2020 03:21:11,33.48226,-122.53280,080.0 080.0,080.0,080.0,19.000,19.137,,14.0019,,13.9572,,13.9796,33.0495,,33.0497,33.0744,,33.0760,33.0629,5.9903,,6.2416,6.3226,4.7671,,7.4393,5.5761,5.9494,261.084,272.0575,270.4402,207.765,473.0294,230.8670,250.6536,0.1589,,1.4461,0.4616,-99.0,,-99.0,-99.0,24.6802,,24.7087,,0.7641,82.6112,,8.142,,1.9043E+00,,3.0294E-01,,13.9992,13.9545,0.0692,,101.908,81.037,,,,,,,,,,,,
CalCOFI,2007SR,058,60,2007_058d,24-Jul-2020 11:21:12,24-Jul-2020 03:21:12,33.48226,-122.53280,080.0 080.0,080.0,080.0,20.000,20.144,,13.8221,,13.8052,,13.8137,33.0593,,33.0595,33.0731,,33.0747,33.0671,6.0191,,6.2717,6.3530,4.7827,,7.4765,5.6124,5.9827,262.327,273.3551,271.7655,208.440,476.0696,232.3779,252.0717,0.1599,,1.4579,0.4522,-99.0,,-99.0,-99.0,24.7249,,24.7391,,0.7579,82.7399,,8.143,,1.9043E+00,,2.8046E-01,,13.8192,13.8023,0.0725,,102.031,81.052,20,14.146,33.1285,6.212,271.31,0.463,0.166,2.23,0.026,0.24,0.47,2.40
CalCOFI,2007SR,058,60,2007_058d,24-Jul-2020 11:21:14,24-Jul-2020 03:21:14,33.48226,-122.53280,080.0 080.0,080.0,080.0,21.000,21.151,,13.8109,,13.8088,,13.8099,33.0904,,33.0906,33.0952,,33.0968,33.0937,6.0162,,6.2686,6.3499,4.7841,,7.4799,5.6157,5.9828,262.192,273.2141,271.6216,208.495,475.7394,232.5010,252.0613,0.1699,,1.5761,0.3473,-99.0,,-99.0,-99.0,24.7512,,24.7554,,0.7588,82.7197,,8.139,,1.9043E+00,,2.5998E-01,,13.8080,13.8058,0.0757,,101.977,81.091,,,,,,,,,,,,
CalCOFI,2007SR,058,60,2007_058d,24-Jul-2020 11:21:17,24-Jul-2020 03:21:17,33.48226,-122.53280,080.0 080.0,080.0,080.0,22.000,22.158,,13.7991,,13.7957,,13.7974,33.0962,,33.0964,33.1002,,33.1018,33.0991,6.0135,,6.2658,6.3470,4.7890,,7.4916,5.6271,5.9871,262.076,273.0930,271.4979,208.711,475.4557,232.9845,252.2412,0.1643,,1.5099,0.4084,-99.0,,-99.0,-99.0,24.7582,,24.7620,,0.7618,82.6592,,8.138,,1.9043E+00,,2.3473E-01,,13.7960,13.7926,0.0789,,101.912,81.157,,,,,,,,,,,,
CalCOFI,2007SR,058,60,2007_058d,24-Jul-2020 11:21:18,24-Jul-2020 03:21:18,33.48226,-122.53280,080.0 080.0,080.0,080.0,23.000,23.166,,13.7869,,13.7842,,13.7856,33.0967,,33.0969,33.1000,,33.1016,33.0993,6.0198,,6.2724,6.3537,4.7899,,7.4937,5.6292,5.9915,262.350,273.3791,271.7900,208.748,476.1258,233.0673,252.4287,0.1749,,1.6352,0.2874,-99.0,,-99.0,-99.0,24.7611,,24.7642,,0.7581,82.7358,,8.138,,1.9043E+00,,2.2497E-01,,13.7836,13.7809,0.0821,,101.994,81.152,,,,,,,,,,,,
CalCOFI,2007SR,058,60,2007_058d,24-Jul-2020 11:21:20,24-Jul-2020 03:21:20,33.48225,-122.53280,080.0 080.0,080.0,080.0,24.000,24.173,,13.7571,,13.7574,,13.7573,33.0921,,33.0923,33.0970,,33.0986,33.0955,6.0047,,6.2566,6.3378,4.7966,,7.5097,5.6449,5.9914,261.690,272.6901,271.0863,209.039,474.5116,233.7186,252.4025,0.1648,,1.5158,0.4032,-99.0,,-99.0,-99.0,24.7637,,24.7674,,0.7582,82.7323,,8.138,,1.9043E+00,,2.0769E-01,,13.7537,13.7540,0.0853,,101.672,81.220,,,,,,,,,,,,
CalCOFI,2007SR,058,60,2007_058d,24-Jul-2020 11:21:23,24-Jul-2020 03:21:23,33.48226,-122.53280,080.0 080.0,080.0,080.0,25.000,25.180,,13.6836,,13.6683,,13.6760,33.0749,,33.0751,33.0863,,33.0879,33.0815,5.9883,,6.2395,6.3205,4.8095,,7.5405,5.6750,5.9978,260.974,271.9427,270.3230,209.597,472.7603,234.9676,252.6453,0.1621,,1.4839,0.4308,-99.0,,-99.0,-99.0,24.7654,,24.7773,,0.7571,82.7554,,8.138,,1.9043E+00,,1.7979E-01,,13.6801,13.6648,0.0885,,101.232,81.284,,,,,,,,,,,,
CalCOFI,2007SR,058,60,2007_058d,24-Jul-2020 11:21:25,24-Jul-2020 03:21:25,33.48226,-122.53280,080.0 080.0,080.0,080.0,26.000,26.187,,13.6124,,13.6035,,13.6080,33.0747,,33.0749,33.0843,,33.0859,33.0804,5.9711,,6.2215,6.3023,4.8206,,7.5670,5.7009,6.0016,260.222,271.1576,269.5212,210.081,470.9211,236.0509,252.7861,0.1632,,1.4969,0.4197,-99.0,,-99.0,-99.0,24.7798,,24.7890,,0.7519,82.8638,,8.135,,1.9043E+00,,1.6952E-01,,13.6088,13.5998,0.0917,,100.795,81.364,,,,,,,,,,,,
CalCOFI,2007SR,058,60,2007_058d,24-Jul-2020 11:21:26,24-Jul-2020 03:21:26,33.48226,-122.53280,080.0 080.0,080.0,080.0,27.000,27.195,,13.5463,,13.5408,,13.5436,33.0826,,33.0828,33.0956,,33.0972,33.0900,5.9737,,6.2242,6.3050,4.8259,,7.5797,5.7132,6.0091,260.331,271.2714,269.6374,210.306,471.1877,236.5546,253.0960,0.1639,,1.5052,0.4126,-99.0,,-99.0,-99.0,24.7993,,24.8105,,0.7515,82.8720,,8.135,,1.9043E+00,,1.5743E-01,,13.5425,13.5370,0.0949,,100.708,81.354,,,,,,,,,,,,
CalCOFI,2007SR,058,60,2007_058d,24-Jul-2020 11:21:29,24-Jul-2020 03:21:29,33.48226,-122.53280,080.0 080.0,080.0,080.0,28.000,28.202,,13.4481,,13.4499,,13.4490,33.1105,,33.1107,33.1194,,33.1210,33.1159,5.9674,,6.2176,6.2984,4.8319,,7.5940,5.7272,6.0128,260.045,270.9729,269.3325,210.559,470.4881,237.1209,253.2267,0.1609,,1.4697,0.4426,-99.0,,-99.0,-99.0,24.8408,,24.8473,,0.7520,82.8615,,8.131,,1.9043E+00,,1.4543E-01,,13.4442,13.4461,0.0980,,100.416,81.315,,,,,,,,,,,,
CalCOFI,2007SR,058,60,2007_058d,24-Jul-2020 11:21:31,24-Jul-2020 03:21:31,33.48226,-122.53280,080.0 080.0,080.0,080.0,29.000,29.209,,13.4698,,13.4778,,13.4738,33.1346,,33.1348,33.1331,,33.1347,33.1348,5.9500,,6.1995,6.2800,4.8278,,7.5842,5.7177,5.9989,259.283,270.1774,268.5201,210.383,468.6244,236.7269,252.6235,0.1634,,1.4993,0.4177,-99.0,,-99.0,-99.0,24.8550,,24.8523,,0.7491,82.9202,,8.128,,1.9043E+00,,1.3269E-01,,13.4657,13.4737,0.1011,,100.183,81.301,,,,,,,,,,,,
CalCOFI,2007SR,058,60,2007_058d,24-Jul-2020 11:21:33,24-Jul-2020 03:21:33,33.48226,-122.53280,080.0 080.0,080.0,080.0,30.000,30.216,,13.5131,,13.5181,,13.5156,33.1513,,33.1515,33.1486,,33.1502,33.1509,5.9326,,6.1813,6.2617,4.8231,,7.5730,5.7067,5.9842,258.522,269.3830,267.7087,210.177,466.7631,236.2658,251.9873,0.1634,,1.4993,0.4177,-99.0,,-99.0,-99.0,24.8593,,24.8562,,0.7493,82.9184,,8.126,,1.9043E+00,,1.2331E-01,,13.5089,13.5139,0.1043,,99.988,81.297,30,13.338,33.0787,,272.49,0.582,0.248,1.98,0.027,0.36,0.47,2.39
CalCOFI,2007SR,058,60,2007_058d,24-Jul-2020 11:21:34,24-Jul-2020 03:21:34,33.48226,-122.53280,080.0 080.0,080.0,080.0,31.000,31.224,,13.5487,,13.5522,,13.5505,33.1655,,33.1657,33.1616,,33.1632,33.1645,5.9184,,6.1664,6.2467,4.8160,,7.5560,5.6901,5.9684,257.906,268.7400,267.0520,209.865,465.2565,235.5675,251.3098,0.1631,,1.4957,0.4208,-99.0,,-99.0,-99.0,24.8630,,24.8593,,0.7482,82.9412,,8.123,,1.9043E+00,,1.1841E-01,,13.5444,13.5478,0.1074,,99.832,81.239,,,,,,,,,,,,
CalCOFI,2007SR,058,60,2007_058d,24-Jul-2020 11:21:37,24-Jul-2020 03:21:37,33.48226,-122.53280,080.0 080.0,080.0,080.0,32.000,32.231,,13.5911,,13.5918,,13.5915,33.1824,,33.1826,33.1792,,33.1808,33.1817,5.8755,,6.1216,6.2014,4.8095,,7.5405,5.6750,5.9382,256.031,266.7827,265.0529,209.582,460.6705,234.9340,249.9935,0.1612,,1.4733,0.4397,-99.0,,-99.0,-99.0,24.8675,,24.8649,,0.7457,82.9919,,8.118,,1.9043E+00,,9.9554E-02,,13.5867,13.5873,0.1105,,99.203,81.205,,,,,,,,,,,,
CalCOFI,2007SR,058,60,2007_058d,24-Jul-2020 11:21:40,24-Jul-2020 03:21:40,33.48226,-122.53280,080.0 080.0,080.0,080.0,33.000,33.238,,13.5874,,13.5850,,13.5862,33.1907,,33.1909,33.1942,,33.1958,33.1934,5.8587,,6.1041,6.1837,4.8100,,7.5417,5.6761,5.9299,255.300,266.0196,264.2736,209.598,458.8826,234.9698,249.6217,0.1599,,1.4579,0.4522,-99.0,,-99.0,-99.0,24.8747,,24.8779,,0.7472,82.9610,,8.116,,1.9043E+00,,9.4733E-02,,13.5828,13.5804,0.1136,,98.918,81.208,,,,,,,,,,,,
CalCOFI,2007SR,058,60,2007_058d,24-Jul-2020 11:21:41,24-Jul-2020 03:21:41,33.48226,-122.53280,080.0 080.0,080.0,080.0,34.000,34.246,,13.5587,,13.5546,,13.5567,33.1842,,33.1844,33.1905,,33.1921,33.1883,5.8443,,6.0890,6.1685,4.8139,,7.5510,5.6852,5.9269,254.673,265.3650,263.6051,209.768,457.3490,235.3504,249.4778,0.1632,,1.4969,0.4197,-99.0,,-99.0,-99.0,24.8755,,24.8813,,0.7512,82.8783,,8.116,,1.9043E+00,,8.6421E-02,,13.5540,13.5499,0.1167,,98.614,81.222,,,,,,,,,,,,
CalCOFI,2007SR,058,60,2007_058d,24-Jul-2020 11:21:43,24-Jul-2020 03:21:43,33.48226,-122.53279,080.0 080.0,080.0,080.0,35.000,35.253,,13.4971,,13.4920,,13.4946,33.1722,,33.1724,33.1838,,33.1854,33.1789,5.8341,,6.0784,6.1577,4.8213,,7.5687,5.7025,5.9301,254.225,264.8974,263.1274,210.089,456.2533,236.0689,249.5982,0.1662,,1.5324,0.3884,-99.0,,-99.0,-99.0,24.8788,,24.8887,,0.7575,82.7473,,8.115,,1.9043E+00,,7.7629E-02,,13.4923,13.4871,0.1198,,98.309,81.240,,,,,,,,,,,,
CalCOFI,2007SR,058,60,2007_058d,24-Jul-2020 11:21:45,24-Jul-2020 03:21:45,33.48226,-122.53279,080.0 080.0,080.0,080.0,36.000,36.260,,13.3624,,13.3387,,13.3506,33.1602,,33.1604,33.1800,,33.1816,33.1710,5.8238,,6.0676,6.1469,4.8333,,7.5973,5.7305,5.9387,253.774,264.4266,262.6466,210.610,455.1502,237.2350,249.9408,0.1604,,1.4638,0.4474,-99.0,,-99.0,-99.0,24.8967,,24.9167,,0.7503,82.8965,,8.113,,1.9043E+00,,6.8472E-02,,13.3574,13.3337,0.1229,,97.858,81.186,,,,,,,,,,,,
CalCOFI,2007SR,058,60,2007_058d,24-Jul-2020 11:21:48,24-Jul-2020 03:21:48,33.48226,-122.53280,080.0 080.0,080.0,080.0,37.000,37.268,,13.1893,,13.1745,,13.1819,33.1495,,33.1497,33.1672,,33.1688,33.1593,5.7833,,6.0253,6.1041,4.8517,,7.6413,5.7734,5.9388,252.000,262.5747,260.7552,211.405,450.8112,239.0145,249.8849,0.1555,,1.4060,0.4921,-99.0,,-99.0,-99.0,24.9231,,24.9397,,0.7479,82.9460,,8.112,,1.9043E+00,,5.9630E-02,,13.1842,13.1695,0.1259,,96.825,81.213,,,,,,,,,,,,
CalCOFI,2007SR,058,60,2007_058d,24-Jul-2020 11:21:50,24-Jul-2020 03:21:50,33.48226,-122.53280,080.0 080.0,080.0,080.0,38.000,38.275,,13.0357,,13.0050,,13.0204,33.1283,,33.1285,33.1492,,33.1508,33.1397,5.7581,,5.9989,6.0775,4.8650,,7.6730,5.8044,5.9410,250.899,261.4254,259.5814,211.981,448.1183,240.3037,249.9426,0.1553,,1.4036,0.4938,-99.0,,-99.0,-99.0,24.9371,,24.9594,,0.7469,82.9667,,8.109,,1.9043E+00,,6.2821E-02,,13.0306,12.9999,0.1290,,96.086,81.142,,,,,,,,,,,,
CalCOFI,2007SR,058,60,2007_058d,24-Jul-2020 11:21:51,24-Jul-2020 03:21:51,33.48226,-122.53279,080.0 080.0,080.0,080.0,39.000,39.282,,12.8855,,12.8691,,12.8773,33.1264,,33.1266,33.1468,,33.1484,33.1375,5.7605,,6.0014,6.0801,4.8769,,7.7014,5.8322,5.9562,250.998,261.5287,259.6870,212.494,448.3605,241.4520,250.5695,0.1535,,1.3823,0.5090,-99.0,,-99.0,-99.0,24.9652,,24.9843,,0.7443,83.0210,,8.109,,1.9043E+00,,5.2341E-02,,12.8803,12.8639,0.1320,,95.827,81.111,,,,,,,,,,,,
CalCOFI,2007SR,058,60,2007_058d,24-Jul-2020 11:21:53,24-Jul-2020 03:21:53,33.48226,-122.53278,080.0 080.0,080.0,080.0,40.000,40.290,,12.7465,,12.7271,,12.7368,33.1415,,33.1417,33.1595,,33.1611,33.1514,5.7825,,6.0244,6.1033,4.8833,,7.7167,5.8471,5.9752,251.948,262.5204,260.6998,212.767,450.6840,242.0630,251.3814,0.1476,,1.3127,0.5542,-99.0,,-99.0,-99.0,25.0042,,25.0218,,0.7422,83.0655,,8.105,,1.9043E+00,,4.7658E-02,,12.7411,12.7218,0.1350,,95.926,80.986,,,,,,,,,,,,
CalCOFI,2007SR,058,60,2007_058d,24-Jul-2020 11:21:55,24-Jul-2020 03:21:55,33.48226,-122.53279,080.0 080.0,080.0,080.0,41.000,41.297,,12.6919,,12.6879,,12.6899,33.1675,,33.1677,33.1753,,33.1769,33.1723,5.7700,,6.0114,6.0901,4.8800,,7.7088,5.8394,5.9648,251.395,261.9431,260.1102,212.614,449.3315,241.7206,250.9154,0.1450,,1.2820,0.5719,-99.0,,-99.0,-99.0,25.0349,,25.0417,,0.7374,83.1657,,8.101,,1.9043E+00,,5.4520E-02,,12.6864,12.6824,0.1379,,95.626,80.872,41,12.765,33.1351,,265.96,0.621,0.274,3.18,0.042,0.58,0.56,2.91
CalCOFI,2007SR,058,60,2007_058d,24-Jul-2020 11:21:58,24-Jul-2020 03:21:58,33.48226,-122.53280,080.0 080.0,080.0,080.0,42.000,42.304,,12.6508,,12.6434,,12.6471,33.1717,,33.1719,33.1788,,33.1804,33.1762,5.7541,,5.9948,6.0733,4.8728,,7.6916,5.8226,5.9480,250.700,261.2176,259.3692,212.299,447.6316,241.0155,250.1924,0.1370,,1.1875,0.6182,-99.0,,-99.0,-99.0,25.0462,,25.0531,,0.7350,83.2137,,8.097,,1.9043E+00,,4.0163E-02,,12.6453,12.6378,0.1409,,95.283,80.680,,,,,,,,,,,,
CalCOFI,2007SR,058,60,2007_058d,24-Jul-2020 11:21:59,24-Jul-2020 03:21:59,33.48226,-122.53280,080.0 080.0,080.0,080.0,43.000,43.312,,12.6335,,12.6314,,12.6325,33.1859,,33.1861,33.1896,,33.1912,33.1887,5.7485,,5.9889,6.0674,4.8693,,7.6833,5.8145,5.9410,250.451,260.9577,259.1038,212.146,447.0226,240.6730,249.8884,0.1357,,1.1722,0.6245,-99.0,,-99.0,-99.0,25.0606,,25.0638,,0.7342,83.2302,,8.096,,1.9043E+00,,3.6122E-02,,12.6278,12.6257,0.1438,,95.165,80.608,,,,,,,,,,,,
CalCOFI,2007SR,058,60,2007_058d,24-Jul-2020 11:22:01,24-Jul-2020 03:22:01,33.48226,-122.53278,080.0 080.0,080.0,080.0,44.000,44.319,,12.6200,,12.6177,,12.6189,33.1877,,33.1879,33.1919,,33.1935,33.1907,5.7527,,5.9933,6.0718,4.8674,,7.6787,5.8100,5.9409,250.635,261.1498,259.2999,212.062,447.4726,240.4850,249.8925,0.2328,,2.3208,0.0000,2.6630E-07,,0.0000,-99.0,25.0646,,25.0684,,0.7331,83.2541,,8.093,,1.9043E+00,,3.2643E-02,,12.6141,12.6118,0.1467,,95.209,80.555,,,,,,,,,,,,
CalCOFI,2007SR,058,60,2007_058d,24-Jul-2020 11:22:03,24-Jul-2020 03:22:03,33.48226,-122.53278,080.0 080.0,080.0,080.0,45.000,45.326,,12.6142,,12.6120,,12.6131,33.1945,,33.1947,33.1976,,33.1992,33.1970,5.7397,,5.9797,6.0581,4.8625,,7.6670,5.7986,5.9284,250.066,260.5558,258.6933,211.848,446.0809,240.0060,249.3497,0.1401,,1.2241,0.6017,1.3796E-08,,0.0000,-99.0,25.0710,,25.0738,,0.7322,83.2736,,8.091,,1.9043E+00,,2.5663E-02,,12.6082,12.6061,0.1497,,94.986,80.467,,,,,,,,,,,,
CalCOFI,2007SR,058,60,2007_058d,24-Jul-2020 11:22:06,24-Jul-2020 03:22:06,33.48226,-122.53280,080.0 080.0,080.0,080.0,46.000,46.334,,12.6122,,12.6068,,12.6095,33.2138,,33.2140,33.2223,,33.2239,33.2190,5.7025,,5.9408,6.0189,4.8565,,7.6527,5.7846,5.9018,248.442,258.8605,256.9618,211.583,442.1089,239.4129,248.1874,0.1315,,1.1227,0.6426,-99.0,,-99.0,-99.0,25.0864,,25.0940,,0.7303,83.3119,,8.087,,1.9043E+00,,6.3328E-03,,12.6061,12.6007,0.1526,,94.378,80.372,,,,,,,,,,,,
CalCOFI,2007SR,058,60,2007_058d,24-Jul-2020 11:22:08,24-Jul-2020 03:22:08,33.48226,-122.53279,080.0 080.0,080.0,080.0,47.000,47.341,,12.5422,,12.5323,,12.5373,33.2179,,33.2181,33.2266,,33.2282,33.2232,5.7690,,6.0103,6.0890,4.8578,,7.6558,5.7876,5.9383,251.333,261.8784,260.0441,211.633,449.1798,239.5248,249.7845,0.1334,,1.1451,0.6348,-99.0,,-99.0,-99.0,25.1032,,25.1118,,0.7307,83.3046,,8.084,,1.9043E+00,,6.2578E-04,,12.5360,12.5261,0.1555,,95.342,80.270,,,,,,,,,,,,
CalCOFI,2007SR,058,60,2007_058d,24-Jul-2020 11:22:09,24-Jul-2020 03:22:09,33.48226,-122.53278,080.0 080.0,080.0,080.0,48.000,48.348,,12.5233,,12.5218,,12.5226,33.2482,,33.2484,33.2482,,33.2498,33.2491,5.8333,,6.0775,6.1569,4.8528,,7.6439,5.7760,5.9665,254.128,264.7961,263.0240,211.412,456.0160,239.0301,251.0271,0.1360,,1.1757,0.6230,-99.0,,-99.0,-99.0,25.1303,,25.1306,,0.7309,83.3005,,8.082,,1.9043E+00,,7.9367E-06,,12.5170,12.5154,0.1583,,96.385,80.181,,,,,,,,,,,,
CalCOFI,2007SR,058,60,2007_058d,24-Jul-2020 11:22:11,24-Jul-2020 03:22:11,33.48226,-122.53278,080.0 080.0,080.0,080.0,49.000,49.356,,12.6345,,12.6523,,12.6434,33.3434,,33.3436,33.3276,,33.3292,33.3364,5.8546,,6.0998,6.1794,4.8313,,7.5926,5.7258,5.9526,255.043,265.7513,263.9996,210.469,458.2540,236.9194,250.4595,0.1186,,0.9705,0.6766,-99.0,,-99.0,-99.0,25.1826,,25.1669,,0.7419,83.0717,,8.076,,1.9043E+00,,1.0000E-12,,12.6280,12.6457,0.1612,,97.019,80.083,,,,,,,,,,,,